Погода в Татищеве Погосте

Россия / Ярославская область     57°20′04″N   39°28′12″E
темп.,
°C
ветер,
м/с
пор.,
м/с
влажн.,
%
обл.,
%
осадки,
мм/ч
давл.,
гПа
погр.,
м
15 июня, вт
вт1500:00+16с228665 0.1 101511
03:00+14св118815 0.1 101511
06:00+17в118411 0.0 101584
09:00+21ююв22712 0.0 1014472
12:00+24ю33651 0.6 1013967
15:00+25ююз356194 1.3 10111341
18:00+23зюз35741 0.4 1010337
21:00+18з22810 0.8 101011
16 июня, ср
ср1600:00+17юз118334 0.0 100911
03:00+17з228883 0.1 100935
06:00+16сз4890100 0.3 1010252
09:00+19ссз4674100 0.3 1012651
12:00+20ссз566995 0.2 10131344
15:00+21с58510 0.3 10141954
18:00+19с48610 0.0 1015398
21:00+14сз336897 0.0 101718
17 июня, чт
чт1700:00+12сз37645 0.0 101993
03:00+10сз35631 0.0 102159
06:00+12сз310725 0.0 1022289
09:00+17ссз47540 0.0 1023670
12:00+21сз35460 0.0 10241631
15:00+22зсз464929 0.0 10242087
18:00+21сз35662 0.0 1024391
21:00+17зюз33730 0.0 102421
18 июня, пт
пт1800:00+14з33795 0.0 102536
03:00+13зсз338619 0.0 102629
06:00+16з228197 0.0 102785
09:00+21зюз22664 0.0 1027419
12:00+24зюз235385 0.0 10261387
15:00+25зюз3551100 0.0 10251731
18:00+25зюз35655 0.0 1025321
21:00+19юз46775 0.0 102586
19 июня, сб
сб1900:00+17зюз47795 0.0 1025112
03:00+15зюз411860 0.0 1026186
06:00+17зюз411830 0.0 1026311
09:00+22з68680 0.0 1026559
12:00+25з68550 0.0 10251463
15:00+27з57580 0.0 10241826
18:00+25з37650 0.0 1023282
21:00+20зюз33700 0.0 102328